This demonstration page uses our WeatherBlox Daily Observations layout. Learn more.

Left ArrowRight Arrow

Hourly Observations for February 19, 2018

Temp ( °F °C ) Dew Point ( °F °C ) Humidity (%) Winds ( mph kmh ) Pressure ( in mb ) Visibility ( mi km ) Precip ( " mm )
12:02 am 00:02 Cloudy with Light Snow 34 1.1 28 -2.2 79 79 N 16 26 29.68 1005 9 14 0.00 0.03
12:46 am 00:46 Cloudy with Light Snow 32 0 29 -1.7 88 88 N 13 20 29.71 1006 6 10 0.00 0.03
12:54 am 00:54 Cloudy with Light Snow 32 0 29 -1.7 88 88 N 15 24 29.66 1004 5 8 0.00 0.03
1:10 am 01:10 Cloudy with Light Snow 32 0 29 -1.7 88 88 N 16 26 29.71 1006 4 6 0.00 0.03
1:54 am 01:54 Cloudy with Light Snow 31 -0.6 29 -1.7 92 92 N 13 20 29.65 1004 3 5 0.00 0.03
2:54 am 02:54 Cloudy with Light Snow 32 0 30 -1.1 92 92 N 15 24 29.67 1005 3 5 0.00 0.03
3:54 am 03:54 Cloudy with Light Wintry Mix 30 -1.1 28 -2.2 92 92 N 21 33 29.68 1005 4 6 0.01 0.25
4:22 am 04:22 Cloudy with Light Freezing Rain 29 -1.7 26 -3.3 89 89 N 23 37 29.74 1007 5 8 0.00 0.03
4:36 am 04:36 Windy with Snow Likely 28 -2.2 26 -3.3 92 92 NNW 24 39 29.77 1008 4 6 0.00 0.03
4:54 am 04:54 Windy with Snow Likely 27 -2.8 25 -3.9 92 92 N 22 35 29.72 1006 3 5 0.00 0.03
5:54 am 05:54 Windy with Snow Likely 25 -3.9 22 -5.6 88 88 N 25 41 29.76 1008 7 11 0.00 0.03
6:54 am 06:54 Windy with Snow Likely 24 -4.4 21 -6.1 88 88 N 21 33 29.80 1009 7 11 0.00 0.03
7:54 am 07:54 Windy with Snow Likely 23 -5 20 -6.7 88 88 N 24 39 29.82 1010 6 10 0.00 0.03
8:54 am 08:54 Windy with Snow Likely 23 -5 19 -7.2 85 85 N 23 37 29.84 1011 9 14 0.00 0.03
9:54 am 09:54 Cloudy with Light Snow 23 -5 20 -6.7 88 88 N 16 26 29.86 1011 9 14 0.00 0.03
10:54 am 10:54 Windy with Snow Likely 22 -5.6 19 -7.2 89 89 N 21 33 29.88 1012 9 14 0.00 0.03
11:54 am 11:54 Cloudy with Light Snow 22 -5.6 19 -7.2 89 89 N 17 28 29.89 1012 9 14 0.00 0.03
12:54 pm 12:54 Cloudy with Light Snow 22 -5.6 20 -6.7 92 92 NNW 16 26 29.89 1012 9 14 0.00 0.03
1:54 pm 13:54 Cloudy with Light Snow 22 -5.6 19 -7.2 89 89 N 15 24 29.88 1012 9 14 0.00 0.03
2:54 pm 14:54 Cloudy with Light Snow 23 -5 19 -7.2 85 85 N 13 20 29.88 1012 9 14 0.00 0.03
3:54 pm 15:54 Cloudy with Light Snow 23 -5 19 -7.2 85 85 NNW 17 28 29.89 1012 9 14 0.00 0.03
4:54 pm 16:54 Cloudy with Light Snow 22 -5.6 19 -7.2 89 89 NNW 15 24 29.90 1013 9 14 0.00 0.03
5:54 pm 17:54 Cloudy with Light Snow 21 -6.1 18 -7.8 88 88 N 14 22 29.91 1013 9 14 0.00 0.03
6:54 pm 18:54 Cloudy with Light Snow 20 -6.7 17 -8.3 89 89 N 12 19 29.95 1014 9 14 0.00 0.03
7:54 pm 19:54 Cloudy with Light Snow 20 -6.7 17 -8.3 89 89 N 9 15 29.94 1014 9 14 0.00 0.03
8:54 pm 20:54 Cloudy with Light Snow 21 -6.1 18 -7.8 88 88 N 16 26 29.91 1013 9 14 0.00 0.03
9:54 pm 21:54 Cloudy with Light Snow 21 -6.1 18 -7.8 88 88 N 10 17 29.92 1013 9 14 0.00 0.03
10:54 pm 22:54 Cloudy with Light Snow 21 -6.1 18 -7.8 88 88 N 9 15 29.91 1013 9 14 0.00 0.03
11:16 pm 23:16 Cloudy with Light Snow 21 -6.1 18 -7.8 88 88 N 9 15 29.97 1015 2 3 0.00 0.03
11:26 pm 23:26 Mostly Cloudy with Snow 21 -6.1 19 -7.2 92 92 N 10 17 29.97 1015 1 1 0.00 0.03
11:54 pm 23:54 Mostly Cloudy with Light Snow 21 -6.1 19 -7.2 92 92 NNW 10 17 29.93 1013 1 1 0.01 0.25
11:59 pm 23:59 Cloudy with Light Snow 21 -6.1 19 -7.2 92 92 N 9 15 29.97 1015 1 2 0.00 0.03

Powered by AerisWeather